| time (UTC) | temp C | wind direction | speed KPH | gust KPH | rain 1hr cm | rain 24hr cm | rain mn cm | humidity % | barometer mb |
| 20260906133027 | 20 | 303 | 4.8 | 11.3 | 0.00 | 0.05 | 0.00 | 83 | 1014.1 |
| 20260906131521 | 20 | 296 | 3.2 | 11.3 | 0.00 | 0.05 | 0.00 | 84 | 1014.1 |
| 20260906130018 | 19 | 343 | 3.2 | 11.3 | 0.00 | 0.05 | 0.00 | 84 | 1014.1 |
| 20260906124514 | 19 | 300 | 4.8 | 9.7 | 0.00 | 0.05 | 0.00 | 85 | 1014.2 |
| 20260906123027 | 18 | 301 | 3.2 | 8.0 | 0.00 | 0.28 | 0.00 | 86 | 1013.9 |
| 20260906121510 | 18 | 305 | 1.6 | 9.7 | 0.00 | 0.28 | 0.00 | 87 | 1013.7 |
| 20260906120008 | 18 | 263 | 0.0 | 8.0 | 0.00 | 0.28 | 0.00 | 87 | 1013.6 |
| 20260906114506 | 18 | 319 | 1.6 | 8.0 | 0.00 | 0.28 | 0.00 | 87 | 1013.6 |
| 20260906113004 | 18 | 350 | 3.2 | 11.3 | 0.00 | 0.58 | 0.00 | 87 | 1013.3 |
| 20260906111605 | 18 | 300 | 3.2 | 9.7 | 0.00 | 0.58 | 0.00 | 88 | 1013.0 |
| 20260906110156 | 18 | 305 | 3.2 | 9.7 | 0.00 | 0.58 | 0.00 | 89 | 1012.7 |
| 20260906104555 | 19 | 355 | 3.2 | 9.7 | 0.00 | 0.58 | 0.00 | 89 | 1012.6 |
| 20260906103104 | 19 | 279 | 6.4 | 9.7 | 0.00 | 0.71 | 0.00 | 90 | 1012.5 |
| 20260906101549 | 19 | 309 | 4.8 | 9.7 | 0.00 | 0.71 | 0.00 | 90 | 1012.3 |
| 20260906100049 | 20 | 4 | 1.6 | 11.3 | 0.00 | 0.71 | 0.00 | 90 | 1012.3 |
| 20260906094544 | 20 | 314 | 3.2 | 9.7 | 0.00 | 0.71 | 0.00 | 89 | 1012.2 |
| 20260906093046 | 20 | 300 | 0.0 | 0.0 | 0.00 | 0.71 | 0.00 | 89 | 1012.2 |
| 20260906091539 | 20 | 315 | 3.2 | 9.7 | 0.00 | 0.71 | 0.00 | 87 | 1012.3 |
| 20260906090055 | 21 | 304 | 1.6 | 8.0 | 0.00 | 0.71 | 0.00 | 88 | 1012.1 |
| 20260906084536 | 21 | 338 | 3.2 | 6.4 | 0.00 | 0.71 | 0.00 | 88 | 1012.1 |
| 20260906083038 | 21 | 293 | 1.6 | 9.7 | 0.00 | 0.71 | 0.00 | 89 | 1012.1 |
| 20260906081531 | 21 | 335 | 3.2 | 9.7 | 0.00 | 0.71 | 0.00 | 89 | 1012.2 |
| 20260906080030 | 21 | 319 | 3.2 | 9.7 | 0.00 | 0.71 | 0.00 | 90 | 1012.1 |
| 20260906074529 | 21 | 304 | 1.6 | 6.4 | 0.00 | 0.71 | 0.00 | 90 | 1011.9 |
| 20260906073030 | 21 | 315 | 4.8 | 9.7 | 0.00 | 0.71 | 0.00 | 91 | 1011.9 |
| 20260906071525 | 21 | 308 | 1.6 | 9.7 | 0.00 | 0.71 | 0.00 | 90 | 1011.8 |
| 20260906070034 | 22 | 355 | 3.2 | 9.7 | 0.00 | 0.71 | 0.00 | 92 | 1011.9 |
| 20260906064524 | 22 | 299 | 3.2 | 6.4 | 0.00 | 0.71 | 0.00 | 93 | 1012.0 |
| 20260906063039 | 22 | 287 | 0.0 | 4.8 | 0.00 | 0.71 | 0.00 | 94 | 1012.0 |
| 20260906061521 | 22 | 287 | 0.0 | 6.4 | 0.00 | 0.71 | 0.00 | 94 | 1012.1 |
| 20260906060020 | 22 | 271 | 0.0 | 4.8 | 0.00 | 0.71 | 0.00 | 94 | 1012.1 |
| 20260906054520 | 21 | 254 | 0.0 | 1.6 | 0.00 | 0.71 | 0.00 | 95 | 1011.9 |
| 20260906053020 | 21 | 254 | 0.0 | 0.0 | 0.00 | 0.71 | 0.00 | 95 | 1011.9 |
| 20260906051532 | 21 | 254 | 0.0 | 0.0 | 0.00 | 0.71 | 0.00 | 95 | 1011.8 |
| 20260906050017 | 21 | 254 | 0.0 | 0.0 | 0.00 | 0.71 | 0.00 | 95 | 1011.9 |
| 20260906044515 | 21 | 254 | 0.0 | 0.0 | 0.00 | 0.71 | 0.00 | 94 | 1011.7 |
| 20260906043016 | 21 | 254 | 0.0 | 0.0 | 0.00 | 0.71 | 0.00 | 94 | 1011.5 |
| 20260906041511 | 22 | 254 | 0.0 | 0.0 | 0.00 | 0.71 | 0.00 | 93 | 1011.7 |
| 20260906040022 | 22 | 254 | 0.0 | 0.0 | 0.00 | 0.71 | 0.00 | 93 | 1011.7 |
| 20260906034507 | 22 | 254 | 0.0 | 3.2 | 0.00 | 0.71 | 0.00 | 92 | 1011.7 |
| 20260906033005 | 22 | 237 | 0.0 | 0.0 | 0.00 | 0.71 | 0.00 | 91 | 1011.7 |
| 20260906031501 | 22 | 237 | 0.0 | 0.0 | 0.00 | 0.71 | 0.00 | 91 | 1011.9 |
| 20260906030059 | 22 | 237 | 0.0 | 0.0 | 0.00 | 0.71 | 0.00 | 89 | 1012.0 |
| 20260906024556 | 23 | 237 | 0.0 | 0.0 | 0.00 | 0.71 | 0.00 | 89 | 1011.9 |
| 20260906023056 | 23 | 293 | 0.0 | 6.4 | 0.00 | 0.71 | 0.00 | 88 | 1011.8 |
| 20260906021549 | 23 | 298 | 1.6 | 6.4 | 0.00 | 0.71 | 0.00 | 87 | 1012.0 |
| 20260906020053 | 23 | 254 | 0.0 | 1.6 | 0.00 | 0.71 | 0.00 | 87 | 1011.7 |
| 20260906014543 | 23 | 239 | 0.0 | 4.8 | 0.00 | 0.71 | 0.00 | 86 | 1011.3 |
| 20260906013058 | 23 | 251 | 0.0 | 3.2 | 0.00 | 0.71 | 0.71 | 87 | 1011.3 |
| 20260906011546 | 23 | 251 | 0.0 | 1.6 | 0.00 | 0.71 | 0.71 | 87 | 1010.9 |
| 20260906010038 | 24 | 251 | 0.0 | 0.0 | 0.00 | 0.71 | 0.71 | 85 | 1010.4 |
| 20260906004538 | 25 | 251 | 0.0 | 0.0 | 0.00 | 0.71 | 0.71 | 84 | 1010.6 |
| 20260906003038 | 25 | 251 | 0.0 | 0.0 | 0.00 | 0.71 | 0.71 | 80 | 1010.8 |
| 20260906001537 | 26 | 251 | 0.0 | 0.0 | 0.00 | 0.71 | 0.71 | 77 | 1010.6 |
| 20260906000005 | 26 | 251 | 0.0 | 0.0 | 0.00 | 0.71 | 0.71 | 75 | 1010.8 |
| 20260905234507 | 27 | 251 | 0.0 | 3.2 | 0.00 | 0.71 | 0.71 | 72 | 1010.6 |
| 20260905233004 | 28 | 251 | 0.0 | 3.2 | 0.00 | 0.71 | 0.71 | 69 | 1010.7 |
| 20260905231501 | 29 | 228 | 0.0 | 4.8 | 0.00 | 0.71 | 0.71 | 66 | 1010.3 |
| 20260905230105 | 29 | 244 | 0.0 | 8.0 | 0.00 | 0.71 | 0.71 | 65 | 1010.2 |
| 20260905224610 | 29 | 255 | 0.0 | 4.8 | 0.00 | 0.71 | 0.71 | 65 | 1010.5 |
| 20260905223057 | 29 | 249 | 3.2 | 11.3 | 0.00 | 0.71 | 0.71 | 64 | 1010.6 |
| 20260905221555 | 29 | 233 | 4.8 | 11.3 | 0.00 | 0.71 | 0.71 | 63 | 1010.5 |
| 20260905220053 | 29 | 274 | 4.8 | 8.0 | 0.00 | 0.71 | 0.71 | 63 | 1010.4 |
| 20260905214544 | 29 | 249 | 1.6 | 12.9 | 0.00 | 0.71 | 0.71 | 60 | 1010.5 |
| 20260905213039 | 29 | 300 | 3.2 | 8.0 | 0.00 | 0.71 | 0.71 | 59 | 1010.2 |
| 20260905211539 | 30 | 282 | 1.6 | 9.7 | 0.00 | 0.71 | 0.71 | 58 | 1010.2 |
| 20260905210050 | 29 | 223 | 0.0 | 4.8 | 0.00 | 0.71 | 0.71 | 62 | 1010.1 |
| 20260905204538 | 28 | 265 | 1.6 | 8.0 | 0.00 | 0.71 | 0.71 | 63 | 1010.4 |
| 20260905203041 | 29 | 258 | 0.0 | 8.0 | 0.00 | 0.71 | 0.71 | 62 | 1010.4 |
| 20260905201535 | 29 | 255 | 0.0 | 12.9 | 0.00 | 0.71 | 0.71 | 61 | 1010.7 |
| 20260905200033 | 30 | 241 | 0.0 | 9.7 | 0.00 | 0.71 | 0.71 | 60 | 1010.9 |
| 20260905194532 | 30 | 191 | 4.8 | 11.3 | 0.00 | 0.71 | 0.71 | 58 | 1010.8 |
| 20260905193028 | 30 | 187 | 1.6 | 9.7 | 0.00 | 0.71 | 0.71 | 59 | 1010.9 |
| 20260905191528 | 29 | 257 | 0.0 | 12.9 | 0.00 | 0.71 | 0.71 | 64 | 1011.2 |
| 20260905190024 | 29 | 253 | 1.6 | 8.0 | 0.00 | 0.71 | 0.71 | 62 | 1011.5 |
| 20260905184523 | 30 | 189 | 0.0 | 8.0 | 0.00 | 0.71 | 0.71 | 61 | 1011.2 |
| 20260905183051 | 29 | 201 | 3.2 | 8.0 | 0.00 | 0.81 | 0.71 | 63 | 1011.5 |
| 20260905181549 | 29 | 110 | 0.0 | 4.8 | 0.00 | 0.81 | 0.71 | 61 | 1011.9 |
| 20260905180043 | 28 | 261 | 0.0 | 8.0 | 0.00 | 0.81 | 0.71 | 65 | 1011.9 |
| 20260905174541 | 28 | 286 | 0.0 | 8.0 | 0.00 | 0.81 | 0.71 | 66 | 1012.1 |
| 20260905173039 | 28 | 87 | 1.6 | 14.5 | 0.00 | 0.81 | 0.71 | 69 | 1012.2 |
| 20260905171553 | 27 | 112 | 0.0 | 9.7 | 0.00 | 0.81 | 0.71 | 71 | 1012.3 |
| 20260905170032 | 27 | 171 | 1.6 | 12.9 | 0.00 | 0.81 | 0.71 | 73 | 1012.3 |
| 20260905164530 | 27 | 134 | 3.2 | 12.9 | 0.00 | 0.81 | 0.71 | 74 | 1012.2 |
| 20260905163034 | 27 | 179 | 8.0 | 12.9 | 0.00 | 0.81 | 0.71 | 71 | 1012.6 |
| 20260905161525 | 26 | 193 | 1.6 | 9.7 | 0.00 | 0.81 | 0.71 | 75 | 1012.9 |
| 20260905160019 | 26 | 40 | 0.0 | 6.4 | 0.00 | 0.81 | 0.71 | 79 | 1013.0 |
| 20260905154516 | 25 | 190 | 1.6 | 4.8 | 0.00 | 0.81 | 0.71 | 81 | 1012.9 |
| 20260905153014 | 24 | 298 | 0.0 | 4.8 | 0.00 | 0.81 | 0.71 | 83 | 1013.0 |
| 20260905151513 | 23 | 311 | 1.6 | 4.8 | 0.00 | 0.81 | 0.71 | 85 | 1013.0 |
| 20260905150046 | 23 | 360 | 3.2 | 14.5 | 0.00 | 0.81 | 0.71 | 88 | 1013.1 |
| 20260905144541 | 22 | 328 | 8.0 | 12.9 | 0.00 | 0.81 | 0.71 | 90 | 1013.1 |
| 20260905143041 | 22 | 298 | 0.0 | 11.3 | 0.00 | 0.81 | 0.71 | 92 | 1013.2 |
| 20260905141537 | 22 | 314 | 0.0 | 9.7 | 0.00 | 0.81 | 0.71 | 93 | 1012.9 |
| 20260905140036 | 22 | 277 | 0.0 | 14.5 | 0.00 | 0.81 | 0.71 | 94 | 1012.0 |
| 20260905134533 | 21 | 225 | 8.0 | 22.5 | 0.03 | 0.81 | 0.71 | 95 | 1010.0 |